Tracking 30922 objects as of 2-Jul-2025
HD Live streaming from Space Station
objects crossing your sky now

STARLINK-4341

Track STARLINK-4341 now!
10-day predictions
STARLINK-4341 is classified as:


NORAD ID: 53052
Int'l Code: 2022-077K
Perigee: 569.4 km
Apogee: 570.9 km
Inclination: 97.7 °
Period: 95.9 minutes
Semi major axis: 6941 km
RCS: Unknown
Launch date: July 11, 2022
Source: United States (US)
Launch site: AIR FORCE WESTERN TEST RANGE (AFWTR)
Your satellite tracking list
Your tracking list is empty




NASA's NSSDC Master Catalog

Two Line Element Set (TLE):
1 53052U 22077K   25182.48556900 -.00000481  00000-0 -32841-4 0  9995
2 53052  97.6558   3.8839 0001087 116.9297 243.2039 15.01259598163221
Source of the keplerian elements: AFSPC